Time,TemperatureF,DewpointF,PressureIn,WindDirection,WindDirectionDegrees,WindSpeedMPH,WindSpeedGustMPH,Humidity,HourlyPrecipIn,Conditions,Clouds,dailyrainin,SolarRadiationWatts/m^2,SoftwareType,DateUTC
2013-09-10 00:01:00,51.3,50.2,29.89,SSE,161,0.0,0.0,96,0.02,-RA,,0.23,0.0,WeatherDisplay:10.37,2013-09-09 22:01:00,
2013-09-10 00:06:00,51.4,50.3,29.88,SSE,161,0.0,0.0,96,0.02,-RA,,0.00,0.0,WeatherDisplay:10.37,2013-09-09 22:06:00,
2013-09-10 00:11:00,51.4,50.3,29.89,SSE,161,0.0,0.0,96,0.02,-RA,,0.00,0.0,WeatherDisplay:10.37,2013-09-09 22:11:00,
2013-09-10 00:16:00,51.3,50.2,29.88,SSE,161,0.0,0.0,96,0.02,-RA,,0.00,0.0,WeatherDisplay:10.37,2013-09-09 22:16:00,
2013-09-10 00:21:00,51.2,50.1,29.88,SSE,161,0.0,0.0,96,0.02,-RA,,0.00,0.0,WeatherDisplay:10.37,2013-09-09 22:21:00,
2013-09-10 00:26:00,51.2,50.1,29.88,SSE,161,0.0,0.0,96,0.01,-RA,,0.00,0.0,WeatherDisplay:10.37,2013-09-09 22:26:00,
2013-09-10 00:31:00,51.2,50.1,29.88,SSE,161,0.0,0.0,96,0.01,-RA,,0.00,0.0,WeatherDisplay:10.37,2013-09-09 22:31:00,
2013-09-10 00:36:00,51.2,50.1,29.88,SSE,161,0.0,0.0,96,0.01,FEW,,0.00,0.0,WeatherDisplay:10.37,2013-09-09 22:36:00,
2013-09-10 00:41:00,51.0,49.9,29.88,SSE,149,2.0,4.6,96,0.01,FEW,,0.00,0.0,WeatherDisplay:10.37,2013-09-09 22:41:00,
2013-09-10 00:46:00,51.0,49.9,29.88,SSE,149,0.0,0.0,96,0.01,FEW,,0.00,0.0,WeatherDisplay:10.37,2013-09-09 22:46:00,
2013-09-10 00:51:00,51.0,49.9,29.88,SSE,149,0.0,0.0,96,0.00,FEW,,0.00,0.0,WeatherDisplay:10.37,2013-09-09 22:51:00,
2013-09-10 00:56:00,51.1,50.0,29.88,SSE,149,0.0,0.0,96,0.01,RA,,0.01,0.0,WeatherDisplay:10.37,2013-09-09 22:56:00,
2013-09-10 01:01:00,51.2,50.1,29.88,SSE,149,0.0,0.0,96,0.01,RA,,0.01,0.0,WeatherDisplay:10.37,2013-09-09 23:01:00,
2013-09-10 01:06:00,51.2,50.1,29.88,SSE,149,0.0,0.0,96,0.01,RA,,0.01,0.0,WeatherDisplay:10.37,2013-09-09 23:06:00,
2013-09-10 01:11:00,51.1,50.0,29.88,SSE,149,0.0,0.0,96,0.01,RA,,0.01,0.0,WeatherDisplay:10.37,2013-09-09 23:11:00,
2013-09-10 01:16:00,51.1,50.0,29.88,SSE,149,0.0,0.0,96,0.01,RA,,0.01,0.0,WeatherDisplay:10.37,2013-09-09 23:16:00,
2013-09-10 01:21:00,51.0,49.9,29.88,SSE,149,0.0,0.0,96,0.01,BKN,,0.01,0.0,WeatherDisplay:10.37,2013-09-09 23:21:00,
2013-09-10 01:26:00,51.0,49.9,29.89,SE,132,0.0,2.3,96,0.02,RA,,0.02,0.0,WeatherDisplay:10.37,2013-09-09 23:26:00,
2013-09-10 01:31:00,51.1,50.0,29.88,SE,132,0.0,0.0,96,0.02,RA,,0.02,0.0,WeatherDisplay:10.37,2013-09-09 23:31:00,
2013-09-10 01:36:00,51.1,50.0,29.88,SE,132,0.0,0.0,96,0.02,-RA,,0.02,0.0,WeatherDisplay:10.37,2013-09-09 23:36:00,
2013-09-10 01:41:00,51.1,50.0,29.88,SE,132,0.0,0.0,96,0.02,-RA,,0.02,0.0,WeatherDisplay:10.37,2013-09-09 23:41:00,
2013-09-10 01:46:00,51.0,49.9,29.87,SE,132,0.0,0.0,96,0.02,-RA,,0.02,0.0,WeatherDisplay:10.37,2013-09-09 23:46:00,
2013-09-10 01:51:00,51.0,49.9,29.88,SE,132,0.0,0.0,96,0.02,-RA,,0.02,0.0,WeatherDisplay:10.37,2013-09-09 23:51:00,
2013-09-10 01:56:00,50.9,49.8,29.88,SE,132,0.0,0.0,96,0.01,-RA,,0.02,0.0,WeatherDisplay:10.37,2013-09-09 23:56:00,
2013-09-10 02:01:00,50.8,49.7,29.87,SE,132,0.0,0.0,96,0.02,-RA,,0.02,0.0,WeatherDisplay:10.37,2013-09-10 00:01:00,
2013-09-10 02:06:00,50.8,49.7,29.88,SE,132,0.0,0.0,96,0.02,RA,,0.02,0.0,WeatherDisplay:10.37,2013-09-10 00:06:00,
2013-09-10 02:11:00,50.7,49.6,29.88,SE,132,0.0,0.0,96,0.02,RA,,0.02,0.0,WeatherDisplay:10.37,2013-09-10 00:11:00,
2013-09-10 02:16:00,50.7,49.6,29.88,SE,132,0.0,0.0,96,0.02,RA,,0.02,0.0,WeatherDisplay:10.37,2013-09-10 00:16:00,
2013-09-10 02:21:00,50.7,49.6,29.88,SE,132,2.6,5.8,96,0.02,RA,,0.02,0.0,WeatherDisplay:10.37,2013-09-10 00:21:00,
2013-09-10 02:26:00,50.8,49.7,29.88,SE,132,2.5,4.6,96,0.01,SCT,,0.02,0.0,WeatherDisplay:10.37,2013-09-10 00:26:00,
2013-09-10 02:31:00,50.8,49.7,29.87,SE,132,2.6,5.8,96,0.01,SCT,,0.02,0.0,WeatherDisplay:10.37,2013-09-10 00:31:00,
2013-09-10 02:36:00,50.7,49.6,29.87,SE,134,1.2,4.0,96,0.02,RA,,0.03,0.0,WeatherDisplay:10.37,2013-09-10 00:36:00,
2013-09-10 02:41:00,50.7,49.6,29.87,SE,134,3.3,4.6,96,0.02,RA,,0.03,0.0,WeatherDisplay:10.37,2013-09-10 00:41:00,
2013-09-10 02:46:00,50.7,49.6,29.87,SE,134,0.0,0.0,96,0.02,RA,,0.03,0.0,WeatherDisplay:10.37,2013-09-10 00:46:00,
2013-09-10 02:51:00,50.6,49.5,29.87,SE,134,0.0,0.0,96,0.02,RA,,0.03,0.0,WeatherDisplay:10.37,2013-09-10 00:51:00,
2013-09-10 02:56:00,50.6,49.5,29.87,SE,134,0.0,0.0,96,0.02,RA,,0.03,0.0,WeatherDisplay:10.37,2013-09-10 00:56:00,
2013-09-10 03:01:00,50.6,49.5,29.87,SE,134,0.0,0.0,96,0.01,SCT,,0.03,0.0,WeatherDisplay:10.37,2013-09-10 01:01:00,
2013-09-10 03:06:00,50.6,49.5,29.87,SE,134,0.0,0.0,96,0.01,-DZ,,0.03,0.0,WeatherDisplay:10.37,2013-09-10 01:06:00,
2013-09-10 03:11:00,50.6,49.5,29.87,SE,134,0.0,0.0,96,0.02,-DZ,,0.04,0.0,WeatherDisplay:10.37,2013-09-10 01:11:00,
2013-09-10 03:16:00,50.6,49.5,29.87,SE,134,0.0,0.0,96,0.02,-DZ,,0.04,0.0,WeatherDisplay:10.37,2013-09-10 01:16:00,
2013-09-10 03:21:00,50.6,49.5,29.87,SE,134,0.0,0.0,96,0.02,-DZ,,0.04,0.0,WeatherDisplay:10.37,2013-09-10 01:21:00,
2013-09-10 03:26:00,50.6,49.5,29.87,SE,134,0.0,0.0,96,0.02,-DZ,,0.04,0.0,WeatherDisplay:10.37,2013-09-10 01:26:00,
2013-09-10 03:31:00,50.6,49.5,29.87,SE,134,0.0,0.0,96,0.02,-DZ,,0.04,0.0,WeatherDisplay:10.37,2013-09-10 01:31:00,
2013-09-10 03:36:00,50.6,49.5,29.87,SE,134,0.0,0.0,96,0.01,-RA,,0.04,0.0,WeatherDisplay:10.37,2013-09-10 01:36:00,
2013-09-10 03:41:00,50.6,49.5,29.87,SE,134,0.0,0.0,96,0.01,-RA,,0.04,0.0,WeatherDisplay:10.37,2013-09-10 01:41:00,
2013-09-10 03:46:00,50.5,49.4,29.88,SE,134,0.0,0.0,96,0.02,-RA,,0.05,0.0,WeatherDisplay:10.37,2013-09-10 01:46:00,
2013-09-10 03:51:00,50.5,49.4,29.88,SE,134,0.0,0.0,96,0.02,-RA,,0.05,0.0,WeatherDisplay:10.37,2013-09-10 01:51:00,
2013-09-10 03:56:00,50.5,49.4,29.88,SE,134,0.0,0.0,96,0.02,-RA,,0.05,0.0,WeatherDisplay:10.37,2013-09-10 01:56:00,
2013-09-10 04:01:00,50.6,49.5,29.88,SE,134,0.0,0.0,96,0.02,-RA,,0.05,0.0,WeatherDisplay:10.37,2013-09-10 02:01:00,
2013-09-10 04:06:00,50.6,49.5,29.88,SE,134,0.0,0.0,96,0.02,RA,,0.05,0.0,WeatherDisplay:10.37,2013-09-10 02:06:00,
2013-09-10 04:11:00,50.6,49.5,29.88,SE,134,0.0,0.0,96,0.01,RA,,0.05,0.0,WeatherDisplay:10.37,2013-09-10 02:11:00,
2013-09-10 04:16:00,50.7,49.6,29.88,SE,134,0.1,4.6,96,0.01,BKN,,0.05,0.0,WeatherDisplay:10.37,2013-09-10 02:16:00,
2013-09-10 04:21:00,50.8,49.7,29.88,SE,134,0.0,0.0,96,0.01,BKN,,0.05,0.0,WeatherDisplay:10.37,2013-09-10 02:21:00,
2013-09-10 04:26:00,50.9,49.8,29.89,SE,134,0.2,1.2,96,0.02,RA,,0.06,0.0,WeatherDisplay:10.37,2013-09-10 02:26:00,
2013-09-10 04:31:00,51.0,49.9,29.88,SE,134,0.9,2.3,96,0.02,RA,,0.06,0.0,WeatherDisplay:10.37,2013-09-10 02:31:00,
2013-09-10 04:36:00,51.0,49.9,29.88,SE,134,0.4,0.0,96,0.02,RA,,0.06,0.0,WeatherDisplay:10.37,2013-09-10 02:36:00,
2013-09-10 04:41:00,51.1,50.0,29.88,SE,134,0.0,0.0,96,0.02,RA,,0.06,0.0,WeatherDisplay:10.37,2013-09-10 02:41:00,
2013-09-10 04:46:00,51.0,49.9,29.88,SE,134,0.0,0.0,96,0.01,RA,,0.06,0.0,WeatherDisplay:10.37,2013-09-10 02:46:00,
2013-09-10 04:51:00,51.0,49.9,29.88,SE,134,0.0,0.0,96,0.01,BKN,,0.06,0.0,WeatherDisplay:10.37,2013-09-10 02:51:00,
2013-09-10 04:56:00,50.9,49.8,29.88,SE,134,0.0,0.0,96,0.01,BKN,,0.06,0.0,WeatherDisplay:10.37,2013-09-10 02:56:00,
2013-09-10 05:01:00,50.8,49.7,29.87,SE,134,0.0,0.0,96,0.02,RA,,0.06,0.0,WeatherDisplay:10.37,2013-09-10 03:01:00,
2013-09-10 05:06:00,50.8,49.7,29.88,SE,134,0.0,0.0,96,0.02,RA,,0.06,0.0,WeatherDisplay:10.37,2013-09-10 03:06:00,
2013-09-10 05:11:00,50.7,49.6,29.88,SE,134,3.6,4.6,96,0.02,RA,,0.06,0.0,WeatherDisplay:10.37,2013-09-10 03:11:00,
2013-09-10 05:16:00,50.8,49.7,29.87,SE,134,0.0,0.0,96,0.02,RA,,0.06,0.0,WeatherDisplay:10.37,2013-09-10 03:16:00,
2013-09-10 05:21:00,50.8,49.7,29.87,SE,134,0.0,0.0,96,0.02,RA,,0.06,0.0,WeatherDisplay:10.37,2013-09-10 03:21:00,
2013-09-10 05:26:00,50.8,49.7,29.87,SE,134,0.0,0.0,96,0.01,RA,,0.06,0.0,WeatherDisplay:10.37,2013-09-10 03:26:00,
2013-09-10 05:31:00,50.8,49.7,29.87,SE,134,2.5,5.8,96,0.01,BKN,,0.06,0.0,WeatherDisplay:10.37,2013-09-10 03:31:00,
2013-09-10 05:36:00,50.7,49.6,29.86,SE,134,0.0,0.0,96,0.01,FEW,,0.06,0.0,WeatherDisplay:10.37,2013-09-10 03:36:00,
2013-09-10 05:41:00,50.7,49.6,29.87,SE,134,0.0,0.0,96,0.02,RA,,0.07,0.0,WeatherDisplay:10.37,2013-09-10 03:41:00,
2013-09-10 05:46:00,50.7,49.6,29.87,SE,134,0.0,0.0,96,0.02,RA,,0.07,0.0,WeatherDisplay:10.37,2013-09-10 03:46:00,
2013-09-10 05:51:00,50.7,49.6,29.87,SE,134,0.0,0.0,96,0.02,RA,,0.07,0.0,WeatherDisplay:10.37,2013-09-10 03:51:00,
2013-09-10 05:56:00,50.7,49.6,29.87,SE,134,0.0,0.0,96,0.02,RA,,0.07,0.0,WeatherDisplay:10.37,2013-09-10 03:56:00,
2013-09-10 06:01:00,50.6,49.5,29.87,SE,134,0.0,0.0,96,0.02,RA,,0.07,0.0,WeatherDisplay:10.37,2013-09-10 04:01:00,
2013-09-10 06:02:00,50.6,49.5,29.87,SE,134,0.0,0.0,96,0.01,RA,,0.07,0.0,WeatherDisplay:10.37,2013-09-10 04:02:00,
2013-09-10 06:07:00,50.6,49.5,29.87,SE,134,0.0,0.0,96,0.01,OVC,,0.07,0.0,WeatherDisplay:10.37,2013-09-10 04:07:00,
2013-09-10 06:12:00,50.6,49.5,29.86,SE,134,0.0,0.0,96,0.01,OVC,,0.07,0.0,WeatherDisplay:10.37,2013-09-10 04:12:00,
2013-09-10 06:17:00,50.6,49.5,29.86,SE,134,0.0,0.0,96,0.01,OVC,,0.07,0.0,WeatherDisplay:10.37,2013-09-10 04:17:00,
2013-09-10 06:22:00,50.7,49.6,29.86,SE,134,0.0,0.0,96,0.02,RA,,0.08,0.0,WeatherDisplay:10.37,2013-09-10 04:22:00,
2013-09-10 06:27:00,50.7,49.6,29.86,SE,134,0.0,0.0,96,0.02,RA,,0.08,0.0,WeatherDisplay:10.37,2013-09-10 04:27:00,
2013-09-10 06:32:00,50.5,49.4,29.87,SE,134,0.0,0.0,96,0.02,RA,,0.08,0.0,WeatherDisplay:10.37,2013-09-10 04:32:00,
2013-09-10 06:37:00,50.5,49.4,29.87,SE,134,0.0,0.0,96,0.02,RA,,0.08,0.0,WeatherDisplay:10.37,2013-09-10 04:37:00,
2013-09-10 06:42:00,50.4,49.3,29.87,SE,134,0.0,0.0,96,0.01,RA,,0.08,0.0,WeatherDisplay:10.37,2013-09-10 04:42:00,
2013-09-10 06:47:00,50.4,49.3,29.87,SE,134,0.0,0.0,96,0.01,FEW,,0.08,0.0,WeatherDisplay:10.37,2013-09-10 04:47:00,
2013-09-10 06:52:00,50.5,49.4,29.87,SE,135,3.6,5.8,96,0.01,FEW,,0.08,0.0,WeatherDisplay:10.37,2013-09-10 04:52:00,
2013-09-10 06:57:00,50.7,49.9,29.87,SE,135,0.2,2.3,97,0.01,FEW,,0.08,0.0,WeatherDisplay:10.37,2013-09-10 04:57:00,
2013-09-10 07:02:00,50.8,50.0,29.87,SE,135,0.1,1.2,97,0.02,RA,,0.09,0.0,WeatherDisplay:10.37,2013-09-10 05:02:00,
2013-09-10 07:07:00,50.9,50.1,29.87,SE,135,0.0,2.3,97,0.02,RA,,0.09,0.0,WeatherDisplay:10.37,2013-09-10 05:07:00,
2013-09-10 07:12:00,50.9,49.8,29.87,SE,135,0.6,3.5,96,0.02,RA,,0.09,0.0,WeatherDisplay:10.37,2013-09-10 05:12:00,
2013-09-10 07:17:00,51.1,50.3,29.88,ESE,112,0.4,4.6,97,0.02,RA,,0.09,0.0,WeatherDisplay:10.37,2013-09-10 05:17:00,
2013-09-10 07:22:00,51.3,50.5,29.88,ESE,112,0.0,0.0,97,0.01,RA,,0.09,0.0,WeatherDisplay:10.37,2013-09-10 05:22:00,
2013-09-10 07:27:00,51.5,50.4,29.89,ESE,112,2.3,7.0,96,0.01,SCT,,0.09,0.0,WeatherDisplay:10.37,2013-09-10 05:27:00,
2013-09-10 07:32:00,51.4,50.3,29.89,NNE,18,3.9,9.2,96,0.01,BKN,,0.09,0.0,WeatherDisplay:10.37,2013-09-10 05:32:00,
2013-09-10 08:15:00,51.6,49.9,29.88,NNW,337,0.0,0.0,94,0.01,BKN,,0.09,11.0,WeatherDisplay:10.37,2013-09-10 06:15:00,
2013-09-10 08:20:00,51.7,50.3,29.88,NNW,338,0.0,0.0,95,0.01,BKN,,0.09,18.0,WeatherDisplay:10.37,2013-09-10 06:20:00,
2013-09-10 08:25:00,51.9,50.2,29.88,NNW,345,0.6,0.0,94,0.02,RA,,0.10,32.0,WeatherDisplay:10.37,2013-09-10 06:25:00,
2013-09-10 08:30:00,51.8,50.4,29.88,North,356,0.0,0.0,95,0.02,RA,,0.10,58.0,WeatherDisplay:10.37,2013-09-10 06:30:00,
2013-09-10 08:35:00,51.9,50.5,29.88,NNE,15,0.0,0.0,95,0.02,RA,,0.10,70.0,WeatherDisplay:10.37,2013-09-10 06:35:00,
2013-09-10 08:40:00,52.0,50.6,29.88,NNE,17,0.0,0.0,95,0.02,RA,,0.10,83.0,WeatherDisplay:10.37,2013-09-10 06:40:00,
2013-09-10 08:45:00,52.0,50.6,29.88,East,100,0.0,3.5,95,0.02,RA,,0.10,95.0,WeatherDisplay:10.37,2013-09-10 06:45:00,
2013-09-10 08:50:00,52.1,50.7,29.88,East,100,0.0,1.2,95,0.01,BKN,,0.10,107.0,WeatherDisplay:10.37,2013-09-10 06:50:00,
2013-09-10 08:55:00,52.2,50.8,29.88,East,100,0.0,1.2,95,0.01,BKN,,0.10,125.0,WeatherDisplay:10.37,2013-09-10 06:55:00,
2013-09-10 09:00:00,52.3,50.9,29.87,East,100,0.0,0.0,95,0.01,BKN,,0.10,76.0,WeatherDisplay:10.37,2013-09-10 07:00:00,
2013-09-10 09:05:00,52.4,51.0,29.87,East,100,0.0,0.0,95,0.02,RA,,0.11,95.0,WeatherDisplay:10.37,2013-09-10 07:05:00,
2013-09-10 09:10:00,52.5,51.1,29.87,ESE,103,0.0,1.2,95,0.39,RA,,0.48,76.0,WeatherDisplay:10.37,2013-09-10 07:10:00,
2013-09-10 09:15:00,52.6,51.2,29.87,ESE,103,0.0,0.0,95,0.39,RA,,0.48,90.0,WeatherDisplay:10.37,2013-09-10 07:15:00,
2013-09-10 09:20:00,52.8,51.4,29.87,ESE,103,0.0,0.0,95,0.39,RA,,0.48,88.0,WeatherDisplay:10.37,2013-09-10 07:20:00,
2013-09-10 09:25:00,53.0,51.6,29.87,ESE,103,0.0,0.0,95,0.38,RA,,0.48,90.0,WeatherDisplay:10.37,2013-09-10 07:25:00,
2013-09-10 09:30:00,53.4,52.0,29.87,North,5,1.9,3.0,95,0.38,RA,,0.48,98.0,WeatherDisplay:10.37,2013-09-10 07:30:00,
2013-09-10 09:35:00,54.1,53.0,29.88,NW,310,3.0,6.9,96,0.38,RA,,0.48,120.0,WeatherDisplay:10.37,2013-09-10 07:35:00,
2013-09-10 09:40:00,54.7,53.6,29.88,NW,308,4.2,8.1,96,0.38,RA,,0.48,144.0,WeatherDisplay:10.37,2013-09-10 07:40:00,
2013-09-10 09:45:00,55.2,53.8,29.88,WNW,288,7.3,10.4,95,0.38,RA,,0.48,220.0,WeatherDisplay:10.37,2013-09-10 07:45:00,
2013-09-10 09:50:00,55.7,53.7,29.88,NNW,343,7.2,10.0,93,0.38,RA,,0.48,174.0,WeatherDisplay:10.37,2013-09-10 07:50:00,
2013-09-10 09:55:00,55.8,53.2,29.89,NW,323,7.5,9.2,91,0.38,FEW,,0.48,149.0,WeatherDisplay:10.37,2013-09-10 07:55:00,
2013-09-10 10:00:00,56.0,53.1,29.89,NW,320,5.0,6.9,90,0.38,FEW,,0.48,97.0,WeatherDisplay:10.37,2013-09-10 08:00:00,
2013-09-10 10:05:00,55.9,52.7,29.89,NW,315,6.2,10.4,89,0.38,FEW,,0.48,47.0,WeatherDisplay:10.37,2013-09-10 08:05:00,
2013-09-10 10:10:00,55.6,52.4,29.90,NNW,333,4.1,5.8,89,0.01,FEW,,0.48,30.0,WeatherDisplay:10.37,2013-09-10 08:10:00,
2013-09-10 10:15:00,55.2,52.3,29.90,NNW,344,3.4,8.1,90,0.01,RA,,0.49,19.0,WeatherDisplay:10.37,2013-09-10 08:15:00,
2013-09-10 10:20:00,54.8,51.9,29.91,NNW,333,5.5,8.1,90,0.04,RA,,0.54,14.0,WeatherDisplay:10.37,2013-09-10 08:20:00,
2013-09-10 10:25:00,53.7,50.5,29.91,NW,321,0.2,4.6,89,0.13,RA,,0.62,14.0,WeatherDisplay:10.37,2013-09-10 08:25:00,
2013-09-10 10:30:00,53.2,50.0,29.90,NW,318,0.9,2.3,89,0.17,RA,,0.65,25.0,WeatherDisplay:10.37,2013-09-10 08:30:00,
2013-09-10 10:35:00,53.1,50.2,29.91,NW,318,0.9,2.3,90,0.17,RA,,0.65,49.0,WeatherDisplay:10.37,2013-09-10 08:35:00,
2013-09-10 10:40:00,53.1,50.5,29.91,NW,318,0.0,0.0,91,0.17,RA,,0.65,91.0,WeatherDisplay:10.37,2013-09-10 08:40:00,
2013-09-10 10:45:00,53.3,51.0,29.91,NW,318,0.0,0.0,92,0.17,RA,,0.65,158.0,WeatherDisplay:10.37,2013-09-10 08:45:00,
2013-09-10 10:50:00,53.7,51.7,29.90,NW,318,0.0,0.0,93,0.17,RA,,0.65,355.0,WeatherDisplay:10.37,2013-09-10 08:50:00,
2013-09-10 10:55:00,54.1,52.1,29.90,NW,318,0.0,0.0,93,0.17,RA,,0.65,417.0,WeatherDisplay:10.37,2013-09-10 08:55:00,
2013-09-10 11:00:00,54.4,52.7,29.91,NW,318,0.0,0.0,94,0.17,BKN,,0.65,148.0,WeatherDisplay:10.37,2013-09-10 09:00:00,
2013-09-10 11:05:00,54.7,52.7,29.91,NW,318,0.0,0.0,93,0.17,-RA,,0.65,137.0,WeatherDisplay:10.37,2013-09-10 09:05:00,
2013-09-10 11:10:00,54.9,52.9,29.91,NW,318,0.0,0.0,93,0.17,-RA,,0.65,104.0,WeatherDisplay:10.37,2013-09-10 09:10:00,
2013-09-10 11:15:00,54.9,52.9,29.91,NW,318,0.0,0.0,93,0.16,-RA,,0.65,123.0,WeatherDisplay:10.37,2013-09-10 09:15:00,
2013-09-10 11:20:00,55.1,53.1,29.91,NW,318,0.0,0.0,93,0.14,-RA,,0.65,190.0,WeatherDisplay:10.37,2013-09-10 09:20:00,
2013-09-10 11:25:00,55.4,53.7,29.90,NW,318,0.0,0.0,94,0.04,-RA,,0.65,592.0,WeatherDisplay:10.37,2013-09-10 09:25:00,
2013-09-10 11:30:00,55.7,54.0,29.90,NW,318,0.0,0.0,94,0.00,-RA,,0.65,265.0,WeatherDisplay:10.37,2013-09-10 09:30:00,
2013-09-10 11:35:00,55.8,53.8,29.90,NW,318,0.0,0.0,93,0.00,-RA,,0.65,264.0,WeatherDisplay:10.37,2013-09-10 09:35:00,
2013-09-10 11:40:00,56.1,54.1,29.90,NW,318,0.0,0.0,93,0.00,-RA,,0.65,297.0,WeatherDisplay:10.37,2013-09-10 09:40:00,
2013-09-10 11:45:00,56.3,54.0,29.91,NW,318,0.0,0.0,92,0.00,-RA,,0.65,206.0,WeatherDisplay:10.37,2013-09-10 09:45:00,
2013-09-10 11:50:00,56.4,53.8,29.91,NNW,339,8.1,13.8,91,0.00,-RA,,0.65,51.0,WeatherDisplay:10.37,2013-09-10 09:50:00,
2013-09-10 11:55:00,56.1,52.9,29.92,NNW,338,5.0,13.8,89,0.01,-RA,,0.65,63.0,WeatherDisplay:10.37,2013-09-10 09:55:00,
2013-09-10 12:00:00,55.5,52.3,29.92,NNW,345,4.6,9.2,89,0.02,-RA,,0.66,60.0,WeatherDisplay:10.37,2013-09-10 10:00:00,
2013-09-10 12:05:00,55.0,52.1,29.92,NNW,338,6.4,8.1,90,0.02, +DZ,,0.66,65.0,WeatherDisplay:10.37,2013-09-10 10:05:00,
2013-09-10 12:10:00,54.7,52.1,29.92,NW,322,3.0,5.8,91,0.02, +DZ,,0.66,100.0,WeatherDisplay:10.37,2013-09-10 10:10:00,
2013-09-10 12:15:00,54.7,52.1,29.91,NW,320,4.6,6.0,91,0.02, +DZ,,0.66,174.0,WeatherDisplay:10.37,2013-09-10 10:15:00,
2013-09-10 12:20:00,54.8,52.5,29.91,NW,324,3.6,7.0,92,0.02, +DZ,,0.67,338.0,WeatherDisplay:10.37,2013-09-10 10:20:00,
2013-09-10 12:25:00,55.1,52.8,29.92,NW,325,2.1,5.8,92,0.02, +DZ,,0.67,329.0,WeatherDisplay:10.37,2013-09-10 10:25:00,
2013-09-10 12:30:00,55.6,53.3,29.92,NW,308,3.0,8.1,92,0.02, +DZ,,0.67,169.0,WeatherDisplay:10.37,2013-09-10 10:30:00,
2013-09-10 12:35:00,55.7,53.1,29.92,WNW,294,3.7,6.0,91,0.03,RA,,0.69,107.0,WeatherDisplay:10.37,2013-09-10 10:35:00,
2013-09-10 12:40:00,55.7,53.1,29.92,WNW,291,8.0,12.7,91,0.06,RA,,0.71,86.0,WeatherDisplay:10.37,2013-09-10 10:40:00,
2013-09-10 12:45:00,55.3,52.7,29.92,WNW,296,3.3,5.8,91,0.08,RA,,0.72,98.0,WeatherDisplay:10.37,2013-09-10 10:45:00,
2013-09-10 12:50:00,55.2,52.6,29.92,NW,305,0.0,1.2,91,0.09,RA,,0.73,135.0,WeatherDisplay:10.37,2013-09-10 10:50:00,
2013-09-10 12:55:00,55.1,52.8,29.92,NW,305,0.0,1.2,92,0.08,RA,,0.73,244.0,WeatherDisplay:10.37,2013-09-10 10:55:00,
2013-09-10 13:00:00,55.3,53.0,29.91,NW,305,0.0,0.0,92,0.07,RA,,0.73,536.0,WeatherDisplay:10.37,2013-09-10 11:00:00,
2013-09-10 13:05:00,55.7,53.4,29.91,NW,305,0.0,0.0,92,0.07, +DZ,,0.73,849.0,WeatherDisplay:10.37,2013-09-10 11:05:00,
2013-09-10 13:10:00,56.2,53.9,29.91,NW,305,0.0,0.0,92,0.07, +DZ,,0.73,197.0,WeatherDisplay:10.37,2013-09-10 11:10:00,
2013-09-10 13:15:00,56.7,54.7,29.91,WNW,296,1.2,8.0,93,0.08, +DZ,,0.74,209.0,WeatherDisplay:10.37,2013-09-10 11:15:00,
2013-09-10 13:20:00,56.6,53.7,29.91,NW,304,5.6,9.2,90,0.07, +DZ,,0.74,318.0,WeatherDisplay:10.37,2013-09-10 11:20:00,
2013-09-10 13:25:00,56.9,53.4,29.91,NW,315,9.3,15.0,88,0.07, +DZ,,0.74,279.0,WeatherDisplay:10.37,2013-09-10 11:25:00,
2013-09-10 13:30:00,57.8,53.9,29.90,WNW,282,8.1,11.5,87,0.07, +DZ,,0.74,315.0,WeatherDisplay:10.37,2013-09-10 11:30:00,
2013-09-10 13:35:00,58.3,53.5,29.91,NW,307,11.5,19.6,84,0.05, +DZ,,0.74,213.0,WeatherDisplay:10.37,2013-09-10 11:35:00,
2013-09-10 13:40:00,58.5,53.3,29.91,WNW,300,9.5,12.7,83,0.03, +DZ,,0.74,172.0,WeatherDisplay:10.37,2013-09-10 11:40:00,
2013-09-10 13:45:00,58.5,53.3,29.91,WNW,300,8.3,13.8,83,0.02, +DZ,,0.74,700.0,WeatherDisplay:10.37,2013-09-10 11:45:00,
2013-09-10 13:50:00,58.9,53.1,29.91,WNW,286,9.7,17.3,81,0.01, +DZ,,0.74,163.0,WeatherDisplay:10.37,2013-09-10 11:50:00,
2013-09-10 13:55:00,59.3,53.4,29.91,WNW,299,13.1,23.0,81,0.01,SCT,,0.74,733.0,WeatherDisplay:10.37,2013-09-10 11:55:00,
2013-09-10 14:00:00,59.8,53.6,29.91,NW,307,6.0,9.2,80,0.01,SCT,,0.74,802.0,WeatherDisplay:10.37,2013-09-10 12:00:00,
2013-09-10 14:05:00,60.1,52.8,29.91,WNW,290,15.5,24.2,77,0.01,SCT,,0.74,765.0,WeatherDisplay:10.37,2013-09-10 12:05:00,
2013-09-10 14:10:00,60.0,53.1,29.91,NW,324,13.0,19.6,78,0.01,SCT,,0.74,772.0,WeatherDisplay:10.37,2013-09-10 12:10:00,
2013-09-10 14:15:00,60.3,53.0,29.91,WNW,286,15.3,20.7,77,0.00,SCT,,0.74,729.0,WeatherDisplay:10.37,2013-09-10 12:15:00,
2013-09-10 14:20:00,60.5,53.2,29.91,WNW,290,12.2,15.0,77,0.00,SCT,,0.74,907.0,WeatherDisplay:10.37,2013-09-10 12:20:00,
2013-09-10 14:25:00,60.5,52.5,29.91,WNW,290,13.1,21.9,75,0.00,SCT,,0.74,302.0,WeatherDisplay:10.37,2013-09-10 12:25:00,
2013-09-10 14:30:00,60.6,53.3,29.90,WNW,289,12.5,19.6,77,0.00,SCT,,0.74,756.0,WeatherDisplay:10.37,2013-09-10 12:30:00,
2013-09-10 14:35:00,60.4,53.1,29.91,WNW,295,13.8,24.2,77,0.00,BKN,,0.74,244.0,WeatherDisplay:10.37,2013-09-10 12:35:00,
2013-09-10 14:40:00,59.5,52.6,29.91,NW,313,12.4,19.6,78,0.00,BKN,,0.74,466.0,WeatherDisplay:10.37,2013-09-10 12:40:00,
2013-09-10 14:45:00,59.4,52.9,29.91,WNW,288,13.8,18.4,79,0.00,BKN,,0.74,339.0,WeatherDisplay:10.37,2013-09-10 12:45:00,
2013-09-10 14:50:00,59.1,52.6,29.91,WNW,292,14.4,24.2,79,0.00,BKN,,0.74,380.0,WeatherDisplay:10.37,2013-09-10 12:50:00,
2013-09-10 14:55:00,59.2,53.0,29.92,WNW,282,14.6,25.3,80,0.00,BKN,,0.74,413.0,WeatherDisplay:10.37,2013-09-10 12:55:00,
2013-09-10 15:00:00,58.8,51.9,29.91,WNW,292,10.3,19.6,78,0.00,BKN,,0.74,301.0,WeatherDisplay:10.37,2013-09-10 13:00:00,
2013-09-10 15:05:00,58.6,52.1,29.91,West,275,13.8,18.4,79,0.00,BKN,,0.74,309.0,WeatherDisplay:10.37,2013-09-10 13:05:00,
2013-09-10 15:10:00,58.5,52.7,29.90,West,281,5.5,9.2,81,0.00,BKN,,0.74,355.0,WeatherDisplay:10.37,2013-09-10 13:10:00,
2013-09-10 15:15:00,58.4,52.9,29.91,WNW,298,13.2,26.5,82,0.01,RA,,0.75,84.0,WeatherDisplay:10.37,2013-09-10 13:15:00,
2013-09-10 15:20:00,57.4,52.6,29.91,WNW,298,11.2,19.6,84,0.01,RA,,0.75,146.0,WeatherDisplay:10.37,2013-09-10 13:20:00,
2013-09-10 15:25:00,56.8,52.6,29.90,WNW,288,10.7,18.0,86,0.01,RA,,0.75,105.0,WeatherDisplay:10.37,2013-09-10 13:25:00,
2013-09-10 15:30:00,56.8,53.0,29.90,WNW,290,13.1,19.6,87,0.02,RA,,0.76,183.0,WeatherDisplay:10.37,2013-09-10 13:30:00,
2013-09-10 15:35:00,56.9,53.4,29.90,NW,320,12.4,19.6,88,0.02,-RA,,0.76,316.0,WeatherDisplay:10.37,2013-09-10 13:35:00,
2013-09-10 15:40:00,56.9,53.4,29.90,NW,313,10.4,17.3,88,0.02,-RA,,0.76,207.0,WeatherDisplay:10.37,2013-09-10 13:40:00,
2013-09-10 15:45:00,56.8,53.6,29.90,WSW,240,11.5,17.3,89,0.02,-RA,,0.76,139.0,WeatherDisplay:10.37,2013-09-10 13:45:00,
2013-09-10 15:50:00,56.6,53.7,29.90,West,259,8.8,15.0,90,0.02,-RA,,0.76,95.0,WeatherDisplay:10.37,2013-09-10 13:50:00,
2013-09-10 15:55:00,56.8,53.6,29.90,West,275,10.5,15.0,89,0.02,-RA,,0.76,236.0,WeatherDisplay:10.37,2013-09-10 13:55:00,
2013-09-10 16:00:00,57.2,53.7,29.90,West,274,13.9,24.2,88,0.02,-RA,,0.76,237.0,WeatherDisplay:10.37,2013-09-10 14:00:00,
2013-09-10 16:05:00,57.6,53.7,29.89,WNW,302,8.9,18.4,87,0.02,BKN,,0.76,207.0,WeatherDisplay:10.37,2013-09-10 14:05:00,
2013-09-10 16:10:00,57.9,53.4,29.89,West,273,9.7,21.0,85,0.02,BKN,,0.76,193.0,WeatherDisplay:10.37,2013-09-10 14:10:00,
2013-09-10 16:16:00,58.0,52.8,29.89,SW,234,11.4,19.6,83,0.01,BKN,,0.76,163.0,WeatherDisplay:10.37,2013-09-10 14:16:00,
2013-09-10 16:21:00,58.0,52.8,29.89,West,279,16.9,28.0,83,0.01,BKN,,0.76,144.0,WeatherDisplay:10.37,2013-09-10 14:21:00,
2013-09-10 16:26:00,58.2,53.0,29.89,WNW,282,13.0,25.3,83,0.01,BKN,,0.76,121.0,WeatherDisplay:10.37,2013-09-10 14:26:00,
2013-09-10 16:31:00,58.0,52.8,29.89,SW,230,12.7,28.0,83,0.00,BKN,,0.76,74.0,WeatherDisplay:10.37,2013-09-10 14:31:00,
2013-09-10 16:36:00,57.2,52.7,29.89,West,268,12.8,18.4,85,0.02,RA,,0.77,35.0,WeatherDisplay:10.37,2013-09-10 14:36:00,
2013-09-10 16:41:00,56.5,53.0,29.89,West,267,8.2,11.5,88,0.03,RA,,0.79,39.0,WeatherDisplay:10.37,2013-09-10 14:41:00,
2013-09-10 16:46:00,56.2,53.3,29.90,West,267,10.2,16.1,90,0.03,RA,,0.79,77.0,WeatherDisplay:10.37,2013-09-10 14:46:00,
2013-09-10 16:51:00,55.9,53.0,29.89,WSW,246,13.9,18.4,90,0.03,RA,,0.79,56.0,WeatherDisplay:10.37,2013-09-10 14:51:00,
2013-09-10 16:56:00,55.5,52.6,29.89,West,276,8.8,17.3,90,0.03,RA,,0.79,47.0,WeatherDisplay:10.37,2013-09-10 14:56:00,
2013-09-10 17:01:00,55.4,53.1,29.89,WSW,246,7.6,13.8,92,0.03,RA,,0.80,35.0,WeatherDisplay:10.37,2013-09-10 15:01:00,
2013-09-10 17:06:00,55.5,53.2,29.88,West,259,12.8,18.0,92,0.04,RA,,0.80,58.0,WeatherDisplay:10.37,2013-09-10 15:06:00,
2013-09-10 17:11:00,55.5,53.2,29.88,West,272,13.5,19.6,92,0.04,RA,,0.80,62.0,WeatherDisplay:10.37,2013-09-10 15:11:00,
2013-09-10 17:16:00,55.5,53.2,29.88,WSW,240,14.8,24.2,92,0.04,RA,,0.80,39.0,WeatherDisplay:10.37,2013-09-10 15:16:00,
2013-09-10 17:21:00,55.5,53.2,29.88,WNW,293,15.6,21.0,92,0.05,RA,,0.80,40.0,WeatherDisplay:10.37,2013-09-10 15:21:00,
2013-09-10 17:26:00,55.5,53.2,29.87,West,263,13.9,29.9,92,0.05,RA,,0.80,21.0,WeatherDisplay:10.37,2013-09-10 15:26:00,
2013-09-10 17:31:00,55.4,53.1,29.87,West,263,13.9,23.0,92,0.06,RA,,0.81,16.0,WeatherDisplay:10.37,2013-09-10 15:31:00,
2013-09-10 17:36:00,55.3,53.0,29.87,WSW,248,8.1,19.6,92,0.04,RA,,0.82,9.0,WeatherDisplay:10.37,2013-09-10 15:36:00,
2013-09-10 17:41:00,55.2,52.9,29.87,WSW,243,10.0,18.4,92,0.04,RA,,0.83,7.0,WeatherDisplay:10.37,2013-09-10 15:41:00,
2013-09-10 17:46:00,55.2,53.2,29.87,WSW,257,11.9,19.6,93,0.06,RA,,0.84,11.0,WeatherDisplay:10.37,2013-09-10 15:46:00,
2013-09-10 17:51:00,55.0,53.0,29.86,WSW,250,13.1,29.9,93,0.07,RA,,0.87,9.0,WeatherDisplay:10.37,2013-09-10 15:51:00,
2013-09-10 17:56:00,54.9,52.9,29.86,WSW,253,15.4,25.3,93,0.09,RA,,0.88,11.0,WeatherDisplay:10.37,2013-09-10 15:56:00,
2013-09-10 18:01:00,54.8,52.8,29.86,WSW,250,14.5,16.0,93,0.12,RA,,0.91,9.0,WeatherDisplay:10.37,2013-09-10 16:01:00,
2013-09-10 18:06:00,54.7,52.7,29.85,WSW,251,16.7,19.6,93,0.13,RA,,0.94,7.0,WeatherDisplay:10.37,2013-09-10 16:06:00,
2013-09-10 18:11:00,54.7,52.7,29.85,SW,231,13.0,21.9,93,0.17,RA,,0.96,9.0,WeatherDisplay:10.37,2013-09-10 16:11:00,
2013-09-10 18:16:00,54.8,53.1,29.84,WSW,242,15.6,21.0,94,0.17,RA,,0.97,9.0,WeatherDisplay:10.37,2013-09-10 16:16:00,
2013-09-10 18:21:00,54.7,53.0,29.85,West,261,18.0,24.2,94,0.18,RA,,0.99,11.0,WeatherDisplay:10.37,2013-09-10 16:21:00,
2013-09-10 18:26:00,54.8,53.1,29.84,SW,227,17.3,24.2,94,0.20,RA,,1.01,12.0,WeatherDisplay:10.37,2013-09-10 16:26:00,
2013-09-10 18:31:00,54.9,53.2,29.84,SW,232,17.8,24.2,94,0.21,RA,,1.02,9.0,WeatherDisplay:10.37,2013-09-10 16:31:00,
2013-09-10 18:36:00,55.0,53.3,29.83,WSW,255,10.3,20.7,94,0.21,RA,,1.03,11.0,WeatherDisplay:10.37,2013-09-10 16:36:00,
2013-09-10 18:41:00,55.1,53.4,29.83,West,279,13.6,20.7,94,0.22,RA,,1.05,9.0,WeatherDisplay:10.37,2013-09-10 16:41:00,
2013-09-10 18:46:00,55.3,53.6,29.83,WSW,245,18.2,27.6,94,0.24,RA,,1.08,7.0,WeatherDisplay:10.37,2013-09-10 16:46:00,
2013-09-10 18:51:00,55.4,53.7,29.83,WSW,250,13.2,24.2,94,0.24,RA,,1.10,0.0,WeatherDisplay:10.37,2013-09-10 16:51:00,
2013-09-10 18:56:00,55.4,53.7,29.82,WNW,293,8.8,15.0,94,0.26,RA,,1.13,0.0,WeatherDisplay:10.37,2013-09-10 16:56:00,
2013-09-10 19:01:00,55.7,54.3,29.83,WSW,242,10.2,28.8,95,0.24,RA,,1.14,5.0,WeatherDisplay:10.37,2013-09-10 17:01:00,
2013-09-10 19:06:00,56.2,54.8,29.82,West,269,8.3,17.3,95,0.22,RA,,1.15,7.0,WeatherDisplay:10.37,2013-09-10 17:06:00,
2013-09-10 19:11:00,56.8,55.4,29.83,WNW,288,11.5,19.6,95,0.20,RA,,1.16,5.0,WeatherDisplay:10.37,2013-09-10 17:11:00,
2013-09-10 19:16:00,57.1,55.7,29.82,WNW,293,10.0,19.6,95,0.19,RA,,1.16,5.0,WeatherDisplay:10.37,2013-09-10 17:16:00,
2013-09-10 19:21:00,57.2,55.8,29.83,WNW,296,16.9,23.0,95,0.17,RA,,1.17,5.0,WeatherDisplay:10.37,2013-09-10 17:21:00,
2013-09-10 19:26:00,57.3,55.6,29.82,West,277,13.4,21.9,94,0.17,RA,,1.17,5.0,WeatherDisplay:10.37,2013-09-10 17:26:00,
2013-09-10 19:31:00,57.4,55.7,29.82,NW,313,11.5,20.7,94,0.17,RA,,1.18,0.0,WeatherDisplay:10.37,2013-09-10 17:31:00,
2013-09-10 19:36:00,57.4,55.7,29.82,NW,305,16.3,19.6,94,0.16,RA,,1.19,0.0,WeatherDisplay:10.37,2013-09-10 17:36:00,
2013-09-10 19:41:00,57.4,55.7,29.82,West,259,16.1,23.0,94,0.15,RA,,1.20,0.0,WeatherDisplay:10.37,2013-09-10 17:41:00,
2013-09-10 19:46:00,57.3,55.3,29.81,NW,322,12.4,19.6,93,0.13,RA,,1.20,0.0,WeatherDisplay:10.37,2013-09-10 17:46:00,
2013-09-10 19:51:00,57.4,55.4,29.82,WNW,286,10.4,13.8,93,0.10,RA,,1.20,0.0,WeatherDisplay:10.37,2013-09-10 17:51:00,
2013-09-10 19:56:00,57.5,55.5,29.81,NW,309,12.0,26.5,93,0.08,RA,,1.21,0.0,WeatherDisplay:10.37,2013-09-10 17:56:00,
2013-09-10 20:01:00,57.5,55.2,29.81,WSW,251,14.6,23.0,92,0.07,RA,,1.21,0.0,WeatherDisplay:10.37,2013-09-10 18:01:00,
2013-09-10 20:06:00,57.5,55.2,29.81,WNW,286,11.6,24.2,92,0.07,-RA,,1.23,0.0,WeatherDisplay:10.37,2013-09-10 18:06:00,
2013-09-10 20:11:00,57.5,55.2,29.81,West,276,13.0,20.0,92,0.07,-RA,,1.23,0.0,WeatherDisplay:10.37,2013-09-10 18:11:00,
2013-09-10 20:16:00,57.8,55.5,29.82,WSW,249,19.1,26.5,92,0.07,-RA,,1.23,0.0,WeatherDisplay:10.37,2013-09-10 18:16:00,
2013-09-10 20:21:00,57.8,55.2,29.81,West,275,17.1,23.0,91,0.06,-RA,,1.24,0.0,WeatherDisplay:10.37,2013-09-10 18:21:00,
2013-09-10 20:26:00,57.8,55.2,29.81,WNW,290,11.8,23.0,91,0.06,-RA,,1.24,0.0,WeatherDisplay:10.37,2013-09-10 18:26:00,
2013-09-10 20:31:00,57.9,55.3,29.81,West,269,14.5,19.6,91,0.06,-RA,,1.24,0.0,WeatherDisplay:10.37,2013-09-10 18:31:00,
2013-09-10 20:36:00,57.9,55.3,29.81,WNW,285,12.7,17.3,91,0.06,RA,,1.24,0.0,WeatherDisplay:10.37,2013-09-10 18:36:00,
2013-09-10 20:41:00,57.8,55.2,29.81,WNW,289,10.4,15.0,91,0.06,RA,,1.26,0.0,WeatherDisplay:10.37,2013-09-10 18:41:00,
2013-09-10 20:46:00,57.6,55.3,29.81,West,270,10.9,19.6,92,0.06,RA,,1.27,0.0,WeatherDisplay:10.37,2013-09-10 18:46:00,
2013-09-10 20:51:00,57.6,55.3,29.81,NNW,333,17.5,25.3,92,0.06,RA,,1.27,0.0,WeatherDisplay:10.37,2013-09-10 18:51:00,
2013-09-10 20:56:00,57.7,55.4,29.81,WNW,290,12.1,19.6,92,0.06,RA,,1.27,0.0,WeatherDisplay:10.37,2013-09-10 18:56:00,
2013-09-10 21:01:00,57.8,55.5,29.81,NW,307,10.5,18.4,92,0.06,RA,,1.28,0.0,WeatherDisplay:10.37,2013-09-10 19:01:00,
2013-09-10 21:06:00,57.6,55.3,29.81,West,281,18.2,28.8,92,0.07, +DZ,,1.29,0.0,WeatherDisplay:10.37,2013-09-10 19:06:00,
2013-09-10 21:11:00,57.6,55.0,29.81,NW,306,11.3,16.1,91,0.06, +DZ,,1.29,0.0,WeatherDisplay:10.37,2013-09-10 19:11:00,
2013-09-10 21:16:00,57.6,55.0,29.81,WNW,287,12.4,24.2,91,0.07, +DZ,,1.30,0.0,WeatherDisplay:10.37,2013-09-10 19:16:00,
2013-09-10 21:21:00,57.5,54.9,29.81,WNW,300,15.7,28.8,91,0.07, +DZ,,1.31,0.0,WeatherDisplay:10.37,2013-09-10 19:21:00,
2013-09-10 21:30:00,57.6,55.3,29.81,NW,314,25.0,25.3,92,0.07, +DZ,,1.31,0.0,WeatherDisplay:10.37,2013-09-10 19:30:00,
2013-09-10 21:35:00,57.5,55.2,29.80,West,281,16.2,18.4,92,0.08,-RA,,1.31,0.0,WeatherDisplay:10.37,2013-09-10 19:35:00,
2013-09-10 21:40:00,57.6,55.3,29.80,NW,324,14.1,19.6,92,0.07,-RA,,1.31,0.0,WeatherDisplay:10.37,2013-09-10 19:40:00,
2013-09-10 21:45:00,57.6,55.0,29.81,West,263,19.6,29.9,91,0.06,-RA,,1.32,0.0,WeatherDisplay:10.37,2013-09-10 19:45:00,
2013-09-10 21:50:00,57.6,55.0,29.80,WNW,296,11.2,21.9,91,0.06,-RA,,1.32,0.0,WeatherDisplay:10.37,2013-09-10 19:50:00,
2013-09-10 21:55:00,57.4,55.1,29.80,West,274,11.4,25.3,92,0.07,-RA,,1.34,0.0,WeatherDisplay:10.37,2013-09-10 19:55:00,
2013-09-10 22:00:00,57.2,54.9,29.80,West,263,15.1,23.0,92,0.07,-RA,,1.34,0.0,WeatherDisplay:10.37,2013-09-10 20:00:00,
2013-09-10 22:05:00,57.1,55.1,29.80,WNW,298,16.7,24.0,93,0.06,RA,,1.35,0.0,WeatherDisplay:10.37,2013-09-10 20:05:00,
2013-09-10 22:10:00,57.1,55.1,29.80,WNW,287,10.8,20.7,93,0.06,RA,,1.35,0.0,WeatherDisplay:10.37,2013-09-10 20:10:00,
2013-09-10 22:15:00,57.1,55.1,29.79,WNW,282,15.4,21.9,93,0.06,RA,,1.35,0.0,WeatherDisplay:10.37,2013-09-10 20:15:00,
2013-09-10 22:20:00,57.0,55.0,29.80,West,263,11.4,19.0,93,0.06,RA,,1.35,0.0,WeatherDisplay:10.37,2013-09-10 20:20:00,
2013-09-10 22:25:00,57.0,55.0,29.79,West,272,15.7,21.9,93,0.06,RA,,1.36,0.0,WeatherDisplay:10.37,2013-09-10 20:25:00,
2013-09-10 22:30:00,57.0,55.0,29.79,West,279,10.2,15.0,93,0.06,RA,,1.36,0.0,WeatherDisplay:10.37,2013-09-10 20:30:00,
2013-09-10 22:35:00,56.8,54.8,29.79,WNW,286,8.1,18.4,93,0.06, +DZ,,1.38,0.0,WeatherDisplay:10.37,2013-09-10 20:35:00,
2013-09-10 22:40:00,57.0,55.3,29.79,WNW,282,13.8,23.0,94,0.06, +DZ,,1.38,0.0,WeatherDisplay:10.37,2013-09-10 20:40:00,
2013-09-10 22:45:00,57.1,55.4,29.78,West,277,11.8,26.5,94,0.06, +DZ,,1.39,0.0,WeatherDisplay:10.37,2013-09-10 20:45:00,
2013-09-10 22:50:00,57.3,55.6,29.78,WNW,300,11.8,16.1,94,0.06, +DZ,,1.39,0.0,WeatherDisplay:10.37,2013-09-10 20:50:00,
2013-09-10 22:55:00,57.4,55.7,29.77,NW,305,13.9,19.6,94,0.05, +DZ,,1.39,0.0,WeatherDisplay:10.37,2013-09-10 20:55:00,
2013-09-10 23:00:00,57.5,55.5,29.78,West,277,16.9,29.9,93,0.05, +DZ,,1.39,0.0,WeatherDisplay:10.37,2013-09-10 21:00:00,
2013-09-10 23:05:00,57.7,55.7,29.77,West,269,13.7,16.1,93,0.04,-RA,,1.39,0.0,WeatherDisplay:10.37,2013-09-10 21:05:00,
2013-09-10 23:10:00,57.7,55.7,29.77,West,270,13.6,18.4,93,0.03,-RA,,1.39,0.0,WeatherDisplay:10.37,2013-09-10 21:10:00,
2013-09-10 23:15:00,57.7,55.7,29.77,West,266,8.4,19.6,93,0.05,-RA,,1.40,0.0,WeatherDisplay:10.37,2013-09-10 21:15:00,
2013-09-10 23:20:00,57.6,55.6,29.77,WNW,287,12.3,17.3,93,0.05,-RA,,1.40,0.0,WeatherDisplay:10.37,2013-09-10 21:20:00,
2013-09-10 23:25:00,57.5,55.5,29.76,WNW,290,10.7,17.3,93,0.05,-RA,,1.41,0.0,WeatherDisplay:10.37,2013-09-10 21:25:00,
2013-09-10 23:30:00,57.4,55.7,29.76,West,273,9.3,12.7,94,0.06,-RA,,1.42,0.0,WeatherDisplay:10.37,2013-09-10 21:30:00,
2013-09-10 23:35:00,57.4,55.7,29.75,WSW,255,7.4,18.4,94,0.05, +DZ,,1.43,0.0,WeatherDisplay:10.37,2013-09-10 21:35:00,
2013-09-10 23:40:00,57.5,55.8,29.75,WSW,246,12.2,26.5,94,0.05, +DZ,,1.43,0.0,WeatherDisplay:10.37,2013-09-10 21:40:00,
2013-09-10 23:45:00,57.7,56.3,29.75,West,259,8.5,11.5,95,0.05, +DZ,,1.43,0.0,WeatherDisplay:10.37,2013-09-10 21:45:00,
2013-09-10 23:50:00,57.9,56.5,29.75,WNW,283,9.8,23.0,95,0.05, +DZ,,1.43,0.0,WeatherDisplay:10.37,2013-09-10 21:50:00,
2013-09-10 23:55:00,58.1,56.7,29.75,West,266,9.4,17.3,95,0.05, +DZ,,1.43,0.0,WeatherDisplay:10.37,2013-09-10 21:55:00,